Aérodrome :
LOGIN :

S'inscrire | Disclaimer

   EN    FR    IT 

 










Légende :    VFR   VFR Marginal   IFR   IFR Intensif   IFR Très Intensif
Visi : 
Plafond : 
>= 8 km
>= 3000ft
5 à 8 km
1000 à 3000 ft
1500m à 5 km
500 à 1000 ft
800 à 1500m
200 à 500 ft
< 800m
< 200 ft
Symboles :   Orages  Brouillard  Fortes neiges  Fortes précipitations  Vent > 20 kt
SIGMETs :   Divers  Orages  Givrage  Turbulence  Onde Orograph.  Cendres Volcan.






- Altitude de l'aérodrome : 751 ft
- Code IATA : ENC


LFSN - Nancy Essey

DERNIER METAR :
  • 280830Z AUTO 21003KT 9999 RA BKN008/// BKN012/// OVC020/// ///TCU 01/01 Q0996

METARs EXPIRÉS :
  • 280800Z AUTO 16003KT 9000 OVC009/// ///TCU 01/01 Q0996
  • 280730Z AUTO 18003KT 9999 BKN010/// OVC014/// ///TCU 01/01 Q0996
  • 280700Z AUTO 16003KT 9999 -RA FEW009/// BKN017/// BKN022/// ///TCU 00/00 Q0996
  • 280630Z AUTO 16003KT 4500 -SN BR SCT004/// SCT009/// BKN025/// ///TCU 00/00 Q0996
  • 280600Z AUTO 20003KT 160V230 4100 -SN BR BKN006/// OVC015/// ///TCU 01/00 Q0996

Prévision TAF périmée.



MET'MAP, la Météo Aéronautique d'un coup d'oeil ! - Copyright ORBIFLY Décembre 2007 - Disclaimer

ORBIFLY MET'MAP TEAM :

Programmation & Développement : Alexandra Zaïnal
Sur une idée originale de : Baudouin d'Aumeries
Assistance à la programmation : Marc-Olivier Méhu
Soutien technique & logistique : Manuel Goepfert

Contact : metmap@orbifly.com




SOURCES & CREDITS :

   NOAA